[[{"header":{"parameterUnit":"m.s-1","parameterCategory":1,"la1":30.2991,"la2":30.254,"lo1":-89.0895,"lo2":-89.0444,"dy":0.0017,"dx":0.0017,"nx":28,"ny":28,"refTime":"2023-08-03T21:00:00:Z","depth":0,"parameterNumber":2,"parameterNumberName":"U-component_of_WINDS"},"data":[0,0,0,0,0,0,0,0,0,0,0,0,0,0,0,0,0,0,0,0,0,0,0,0,0,0,0,0,0,0,0,0,0,0,0,0,0,0,0,0,0,0,0,0,0,0,0,0,0,0,0,0,0,0,0,0,0,0,4.1055,4.1057,0,4.1235,4.1237,4.1239,4.1226,4.1223,4.122,4.1218,4.1404,4.1412,4.1419,0,0,0,0,0,0,0,0,0,0,0,0,0,4.0702,4.0708,4.1055,4.1057,4.106,4.1235,4.1237,4.124,4.1226,4.1223,4.122,4.1217,4.1402,4.1411,4.142,0,0,0,0,0,0,0,0,0,0,0,0,0,4.0866,4.0711,4.1055,4.1074,4.1077,4.1234,4.1237,4.124,4.1227,4.1223,4.1219,4.1215,4.1399,4.141,4.1421,4.1571,0,0,4.1455,4.146,0,0,0,0,0,0,0,0,4.0857,4.0879,4.1069,4.1073,4.1077,4.1204,4.1181,4.1351,4.1228,4.117,4.1218,4.1213,4.1341,4.1357,4.1399,4.158,4.1588,4.1456,4.1463,4.1468,4.1471,0,0,0,0,0,0,0,4.0845,4.0871,4.1126,4.1072,4.1077,4.1074,4.1093,4.1213,4.1276,4.1175,4.1174,4.1196,4.1343,4.1389,4.1404,4.159,4.1456,4.1466,4.1473,4.1477,4.1902,4.1907,0,0,0,0,0,0,4.0829,4.0862,4.1121,4.1132,4.0955,4.1084,4.1105,4.1167,4.1275,4.1287,4.1199,4.1195,4.1372,4.1391,4.141,4.1592,4.1468,4.1478,4.1485,4.1898,4.1903,4.1908,0,0,0,0,0,0,4.0822,4.0852,4.1113,4.0997,4.103,4.1094,4.1164,4.1173,4.1219,4.1293,4.1304,4.1234,4.1369,4.1394,4.1531,4.1598,4.1483,4.1493,4.1892,4.1899,4.1906,4.1958,0,0,0,0,0,0,4.0812,4.085,4.0907,4.0998,4.1036,4.123,4.1169,4.1179,4.1238,4.1234,4.1329,4.1341,4.1368,4.1514,4.1542,4.1612,4.1502,4.1886,4.1895,4.1903,4.195,4.1965,4.1978,0,0,0,0,0,4.0799,4.0915,4.091,4.0941,4.1109,4.1234,4.1256,4.1284,4.1244,4.1302,4.1349,4.1338,4.1587,4.1528,4.1559,4.1634,4.1882,4.1893,4.1903,4.1944,4.1962,4.1978,0,0,0,0,0,0,4.0831,4.0927,4.0923,4.1072,4.1145,4.1232,4.1306,4.1303,4.1389,4.1382,4.1413,4.1435,4.1572,4.1617,4.155,4.1784,4.1729,4.1746,4.175,4.1768,4.1782,4.1768,4.1512,0,0,0,0,0,4.0855,4.0949,4.1028,4.1152,4.1189,4.1241,4.1297,4.1312,4.1389,4.142,4.1478,4.1554,4.1649,4.1711,4.1803,4.1957,4.1977,4.2023,4.2038,4.2049,4.2063,4.2147,4.2168,4.1942,4.1942,4.1942,0,0,4.0907,4.0971,4.1028,4.116,4.1218,4.1315,4.1267,4.1371,4.1443,4.1437,4.1568,4.1613,4.17,4.1846,4.1913,4.1887,4.213,4.2062,4.207,4.2079,4.216,4.2181,4.22,4.1949,4.1948,4.1946,0,0,4.1049,4.1107,4.1216,4.1276,4.1364,4.1399,4.1425,4.1513,4.1542,4.1674,4.1671,4.1758,4.1921,4.1983,4.2036,4.2202,4.2195,4.2231,4.2305,4.2387,4.2404,4.242,4.2479,4.2499,4.2245,4.2245,4.2245,0,4.1102,4.1246,4.1273,4.1378,4.1436,4.1433,4.1544,4.1601,4.1715,4.1756,4.1725,4.193,4.1989,4.2148,4.2189,4.2232,4.2263,4.222,4.2399,4.2416,4.2431,4.2487,4.2509,4.2249,4.2249,4.2248,4.2248,0,4.1306,4.1407,4.1484,4.1594,4.1661,4.1768,4.1811,4.1876,4.1885,4.1923,4.2058,4.2128,4.2234,4.2273,4.2284,4.2434,4.2416,4.2392,4.2338,4.2456,4.2509,4.2531,4.2254,4.2253,4.2252,4.2251,0,0,4.1474,4.1596,4.1624,4.1674,4.1772,4.185,4.1957,4.206,4.2114,4.2194,4.2284,4.2423,4.2402,4.2462,4.2479,4.2551,4.2677,4.2519,4.2522,4.2545,4.2847,4.2863,4.2887,4.2673,4.2678,4.2681,4.2839,0,4.1626,4.1814,4.1842,4.2009,4.2101,4.2101,4.2194,4.2264,4.2302,4.2387,4.243,4.2527,4.2492,4.2528,4.2599,4.2647,4.2738,4.2636,4.2758,4.2762,4.2735,4.2915,4.2933,4.3079,4.286,4.2864,4.2866,0,4.1828,4.1911,4.2087,4.2172,4.2212,4.2295,4.2391,4.2472,4.2552,4.2574,4.2641,4.265,4.2762,4.2703,4.2857,4.2787,4.2839,4.287,4.2876,4.2888,4.2821,4.2931,4.3126,4.3148,4.29,4.2897,4.2895,0,4.1931,4.2088,4.2213,4.2256,4.2358,4.2416,4.2461,4.2537,4.2597,4.2681,4.272,4.2817,4.287,4.2944,4.2979,4.2933,4.3131,4.3075,4.3153,4.3152,4.3194,4.3191,4.3399,4.3229,4.3229,4.3228,4.3228,0,4.2097,4.2205,4.2261,4.2338,4.2458,4.2489,4.2607,4.2651,4.2719,4.2804,4.281,4.2891,4.2932,4.3019,4.3048,4.3171,4.3195,4.3216,4.3222,4.3215,4.3212,4.3249,4.3239,4.3234,4.3233,4.3232,4.3231,0,4.2233,4.2274,4.2411,4.2496,4.252,4.2605,4.2678,4.2753,4.279,4.2899,4.2926,4.2985,4.3088,4.313,4.3256,4.3275,4.3416,4.3415,4.3389,4.339,4.3465,4.3457,4.3704,4.3737,4.3546,4.3548,4.3549,0,4.2335,4.2418,4.2511,4.2569,4.2615,4.2708,4.2769,4.2802,4.2865,4.2962,4.3026,4.3128,4.3211,4.3376,4.343,4.3527,4.3528,4.3607,4.3542,4.3532,4.3528,4.3522,4.353,4.3619,4.3621,4.3622,4.3624,0,4.2513,4.2529,4.2616,4.271,4.2782,4.2858,4.2932,4.2979,4.3024,4.3095,4.3199,4.3264,4.3392,4.3494,4.3593,4.3641,4.364,4.3644,4.3667,4.366,4.3641,4.3651,4.342,4.3638,4.3636,4.3635,4.3635,4.3634,4.2635,4.2708,4.2784,4.2881,4.294,4.3009,4.3083,4.3129,4.3216,4.3323,4.3338,4.3449,4.3527,4.3661,4.3712,4.38,4.378,4.3814,4.3822,4.3829,4.3834,4.3627,4.3819,4.3819,4.3818,4.3818,4.3818,0,4.2812,4.2861,4.2949,4.3052,4.3128,4.312,4.3201,4.3265,4.3363,4.3435,4.3517,4.3637,4.3735,4.3797,4.3897,4.3955,4.3958,4.398,4.3976,4.3987,4.3847,4.3816,4.3977,4.3977,4.3977,4.3977,4.3977,4.3977,4.2913,4.3035,4.3061,4.3213,4.3262,4.337,4.3417,4.3481,4.3539,4.3672,4.3753,4.3792,4.3861,4.3965,4.4055,4.4071,4.4107,4.4131,4.4145,4.4013,4.3997,4.3981,4.3952,4.4139,4.4139,4.4278,4.4279,4.428]},{"header":{"parameterUnit":"m.s-1","parameterCategory":1,"la1":30.2991,"la2":30.254,"lo1":-89.0895,"lo2":-89.0444,"dy":0.0017,"dx":0.0017,"nx":28,"ny":28,"refTime":"2023-08-03T21:00:00:Z","depth":0,"parameterNumber":3,"parameterNumberName":"V-component_of_WINDS"},"data":[0,0,0,0,0,0,0,0,0,0,0,0,0,0,0,0,0,0,0,0,0,0,0,0,0,0,0,0,0,0,0,0,0,0,0,0,0,0,0,0,0,0,0,0,0,0,0,0,0,0,0,0,0,0,0,0,0,0,-0.245,-0.245,0,-0.2455,-0.2455,-0.2455,-0.247,-0.2471,-0.2471,-0.2471,-0.2475,-0.2475,-0.2475,0,0,0,0,0,0,0,0,0,0,0,0,0,-0.2453,-0.2453,-0.245,-0.245,-0.245,-0.2455,-0.2455,-0.2455,-0.247,-0.2471,-0.2471,-0.2471,-0.2475,-0.2475,-0.2475,0,0,0,0,0,0,0,0,0,0,0,0,0,-0.2454,-0.2453,-0.245,-0.2458,-0.2459,-0.2455,-0.2455,-0.2455,-0.247,-0.2471,-0.2471,-0.2472,-0.2475,-0.2475,-0.2475,-0.2462,0,0,-0.2474,-0.2474,0,0,0,0,0,0,0,0,-0.2454,-0.2454,-0.2457,-0.2458,-0.2459,-0.2463,-0.2458,-0.2458,-0.247,-0.2466,-0.2471,-0.2472,-0.2471,-0.2471,-0.247,-0.2463,-0.2463,-0.2474,-0.2474,-0.2473,-0.2473,0,0,0,0,0,0,0,-0.2454,-0.2454,-0.2452,-0.2457,-0.2458,-0.2462,-0.2462,-0.2458,-0.2465,-0.2466,-0.2468,-0.2468,-0.2471,-0.2471,-0.2471,-0.2463,-0.2474,-0.2473,-0.2473,-0.2473,-0.2445,-0.2445,0,0,0,0,0,0,-0.2453,-0.2454,-0.2452,-0.2452,-0.2458,-0.2461,-0.2462,-0.2461,-0.2465,-0.2467,-0.2467,-0.2469,-0.2471,-0.2471,-0.2471,-0.2456,-0.2473,-0.2473,-0.2473,-0.2446,-0.2445,-0.2445,0,0,0,0,0,0,-0.2453,-0.2453,-0.2452,-0.2453,-0.2454,-0.2461,-0.2459,-0.2461,-0.246,-0.2466,-0.2468,-0.2466,-0.2471,-0.2471,-0.2465,-0.2457,-0.2473,-0.2473,-0.2447,-0.2446,-0.2445,-0.2428,0,0,0,0,0,0,-0.2453,-0.2453,-0.2448,-0.2453,-0.2453,-0.2445,-0.2459,-0.246,-0.246,-0.2461,-0.2465,-0.2466,-0.2472,-0.2465,-0.2464,-0.2457,-0.2472,-0.2447,-0.2446,-0.2445,-0.2429,-0.2426,-0.2424,0,0,0,0,0,-0.2453,-0.2443,-0.2448,-0.2448,-0.2448,-0.2445,-0.2445,-0.2452,-0.2459,-0.2454,-0.2458,-0.2466,-0.2458,-0.2464,-0.2463,-0.2456,-0.2448,-0.2447,-0.2445,-0.243,-0.2427,-0.2424,0,0,0,0,0,0,-0.2436,-0.2444,-0.2449,-0.244,-0.2442,-0.2447,-0.2442,-0.2449,-0.2448,-0.2449,-0.2458,-0.2459,-0.2451,-0.2453,-0.2459,-0.2444,-0.2454,-0.2453,-0.2443,-0.244,-0.2438,-0.2437,-0.2472,0,0,0,0,0,-0.2432,-0.2429,-0.2435,-0.2427,-0.2427,-0.2435,-0.2433,-0.2439,-0.2441,-0.2441,-0.2445,-0.2446,-0.2444,-0.2442,-0.2441,-0.243,-0.2431,-0.2424,-0.2422,-0.242,-0.2418,-0.2413,-0.241,-0.2441,-0.2441,-0.2441,0,0,-0.2422,-0.2425,-0.2423,-0.2424,-0.2425,-0.2422,-0.2435,-0.2431,-0.2428,-0.2441,-0.2434,-0.2437,-0.2439,-0.243,-0.2427,-0.2432,-0.241,-0.2418,-0.2417,-0.2416,-0.2411,-0.2408,-0.2405,-0.244,-0.244,-0.244,0,0,-0.2402,-0.2404,-0.2398,-0.2399,-0.2402,-0.2407,-0.2406,-0.241,-0.2413,-0.2407,-0.2416,-0.2413,-0.2409,-0.241,-0.241,-0.2391,-0.2398,-0.2391,-0.2378,-0.2372,-0.237,-0.2368,-0.236,-0.2358,-0.2389,-0.2389,-0.2389,0,-0.2389,-0.2384,-0.2393,-0.2388,-0.2388,-0.24,-0.2393,-0.2394,-0.2396,-0.2396,-0.2402,-0.2397,-0.24,-0.2391,-0.2386,-0.2386,-0.2384,-0.239,-0.2369,-0.2367,-0.2365,-0.2359,-0.2356,-0.2388,-0.2388,-0.2389,-0.2389,0,-0.2368,-0.2365,-0.2359,-0.2361,-0.236,-0.2354,-0.2362,-0.236,-0.2366,-0.237,-0.2364,-0.2368,-0.2367,-0.2365,-0.2371,-0.2358,-0.2361,-0.2368,-0.2378,-0.2361,-0.2355,-0.2353,-0.2387,-0.2387,-0.2388,-0.2388,0,0,-0.2336,-0.2344,-0.2341,-0.2342,-0.2347,-0.2344,-0.2339,-0.2339,-0.2337,-0.2338,-0.2334,-0.2331,-0.2338,-0.2338,-0.2344,-0.2339,-0.2323,-0.2347,-0.2347,-0.2341,-0.2308,-0.2302,-0.2299,-0.2328,-0.2328,-0.2327,-0.2308,0,-0.2317,-0.2308,-0.2316,-0.2306,-0.2303,-0.2315,-0.231,-0.2312,-0.2316,-0.2314,-0.2319,-0.2316,-0.2326,-0.2326,-0.2322,-0.2326,-0.2316,-0.2328,-0.2323,-0.2323,-0.2321,-0.2296,-0.2289,-0.227,-0.2305,-0.2305,-0.2305,0,-0.2292,-0.2293,-0.2282,-0.2288,-0.2287,-0.2282,-0.2283,-0.2281,-0.2284,-0.2287,-0.2287,-0.2295,-0.229,-0.2301,-0.2294,-0.2301,-0.23,-0.2302,-0.2302,-0.2301,-0.2312,-0.2293,-0.2265,-0.2261,-0.2301,-0.2301,-0.2302,0,-0.2269,-0.2267,-0.2261,-0.2262,-0.2268,-0.2265,-0.2267,-0.227,-0.227,-0.227,-0.227,-0.227,-0.2269,-0.2269,-0.2276,-0.2283,-0.2268,-0.2279,-0.227,-0.227,-0.2265,-0.2265,-0.2235,-0.2266,-0.2266,-0.2266,-0.2266,0,-0.2246,-0.2239,-0.2251,-0.2246,-0.2239,-0.2249,-0.2241,-0.2245,-0.2248,-0.2244,-0.2255,-0.2251,-0.2261,-0.2259,-0.2265,-0.2258,-0.2258,-0.226,-0.2261,-0.2258,-0.2258,-0.2257,-0.2258,-0.2266,-0.2266,-0.2266,-0.2266,0,-0.2218,-0.2226,-0.222,-0.2226,-0.2228,-0.2222,-0.2228,-0.2224,-0.2229,-0.2225,-0.2225,-0.2232,-0.223,-0.2238,-0.2237,-0.224,-0.223,-0.2234,-0.2229,-0.223,-0.222,-0.2221,-0.2188,-0.2183,-0.2218,-0.2218,-0.2217,0,-0.2202,-0.2197,-0.2204,-0.2202,-0.2204,-0.2202,-0.2202,-0.2211,-0.221,-0.2213,-0.2209,-0.2208,-0.2208,-0.2203,-0.2209,-0.2208,-0.2212,-0.22,-0.2212,-0.2209,-0.2211,-0.221,-0.221,-0.2197,-0.2197,-0.2197,-0.2196,0,-0.2173,-0.2177,-0.2176,-0.2177,-0.2176,-0.2177,-0.2178,-0.2177,-0.2187,-0.2186,-0.2184,-0.2183,-0.2182,-0.2181,-0.2181,-0.2184,-0.2191,-0.2193,-0.2191,-0.2187,-0.2184,-0.2185,-0.2222,-0.2193,-0.2194,-0.2194,-0.2194,-0.2194,-0.215,-0.2146,-0.215,-0.2149,-0.2151,-0.2152,-0.2149,-0.2154,-0.2153,-0.2153,-0.2159,-0.2156,-0.2159,-0.2161,-0.2163,-0.216,-0.2165,-0.2162,-0.2161,-0.216,-0.2158,-0.2185,-0.216,-0.2161,-0.2161,-0.2161,-0.2161,0,-0.2121,-0.2124,-0.2123,-0.2125,-0.2124,-0.2132,-0.2134,-0.2133,-0.213,-0.2133,-0.2132,-0.213,-0.2129,-0.2134,-0.2134,-0.2131,-0.2134,-0.213,-0.213,-0.213,-0.2154,-0.2155,-0.2127,-0.2127,-0.2127,-0.2127,-0.2127,-0.2127,-0.2105,-0.2099,-0.2104,-0.2098,-0.2102,-0.2099,-0.2099,-0.2101,-0.2103,-0.21,-0.2099,-0.2103,-0.2107,-0.2107,-0.2106,-0.2108,-0.2107,-0.2101,-0.2104,-0.2126,-0.2129,-0.2132,-0.2133,-0.2101,-0.2101,-0.2081,-0.2081,-0.2081]}]]